Flag for Lebanon Weather past 2 weeks in Beirut, Lebanon

Now
77 °F

Passing clouds.


Feels Like: 79 °F
Forecast: 74 / 82 °F
Wind: 6 mph from Southwest

Location: Beirut Airport

Current Time: Jul 7, 2015 at 10:53:28 PM

Latest Report: Jul 7, 2015 at 10:00 PM


Visibility: 5 mi

Pressure: 29.86 "Hg

Humidity: 69%

Dew point: 66 °F

Location of BeirutLocation

Historic Weather in Beirut — Graph

°F

Beirut temperature yesterday

Maximum temperature yesterday: 84 °F (at 2:00 PM)
Minimum temperature yesterday: 75 °F (at 2:00 AM)
Average temperature yesterday: 80 °F

Past Weeks' High & Low Weather Summary

 TemperatureHumidityPressure
High84 °F (Jul 6, 2:00 PM)83% (Jul 2, 11:00 PM)30.01 "Hg (Jul 2, 11:00 PM)
Low72 °F (Jun 25, 6:00 AM)51% (Jun 25, 10:00 AM)29.62 "Hg (Jun 28, 3:00 AM)
Average78 °F67%29.88 "Hg
* Reported Jun 22 9:00 PM — Jul 7 9:00 PM, Beirut, Weather by CustomWeather, © 2015

Note: Actual official high and low records may vary slightly from our data, if they occured in-between our weather recording intervals... More about our weather records

Advertising

Beirut weather history for previous 24 hours

 ConditionsComfort  
Time TempWeatherWind HumidityBarometerVisibility
9:00 PM
Tue, Jul 7
77 °FPassing clouds.6 mph69%29.86 "Hg5 mi
8:00 PM79 °FPassing clouds.7 mph65%29.86 "HgN/A
7:00 PM81 °FPassing clouds.7 mph66%29.86 "HgN/A
6:00 PM81 °FPassing clouds.8 mph62%29.86 "HgN/A
5:00 PM81 °FPassing clouds.8 mph62%29.86 "HgN/A
4:00 PM81 °FPassing clouds.9 mph62%29.86 "HgN/A
3:00 PM81 °FPassing clouds.9 mph62%29.89 "HgN/A
2:00 PM81 °FPassing clouds.10 mph62%29.89 "HgN/A
1:00 PM81 °FPassing clouds.10 mph62%29.89 "HgN/A
12:00 PM81 °FPassing clouds.13 mph62%29.89 "HgN/A
11:00 AM81 °FPassing clouds.13 mph62%29.89 "HgN/A
10:00 AM81 °FPassing clouds.13 mph62%29.89 "HgN/A
9:00 AM79 °FPassing clouds.10 mph65%29.89 "Hg5 mi
8:00 AM77 °FPassing clouds.8 mph69%29.89 "Hg5 mi
7:00 AM73 °FScattered clouds.5 mph74%29.86 "HgN/A
6:00 AM75 °FPassing clouds.3 mph69%29.86 "HgN/A
5:00 AM75 °FPassing clouds.2 mph74%29.86 "HgN/A
4:00 AM75 °FPassing clouds.5 mph74%29.86 "HgN/A
3:00 AM75 °FPassing clouds.3 mph78%29.86 "HgN/A
2:00 AM77 °FPassing clouds.3 mph79%29.86 "HgN/A
1:00 AM77 °FPassing clouds.5 mph79%29.89 "HgN/A
12:00 AM77 °FPassing clouds.5 mph79%29.86 "Hg5 mi
11:00 PM
Mon, Jul 6
77 °FPassing clouds.5 mph83%29.89 "HgN/A
10:00 PM79 °FPassing clouds.5 mph79%29.89 "HgN/A
Weather by CustomWeather, © 2015

See weather overviewHow to use our weather pages